Weather History for LKPD - March, 2013

Change the Weather History Date:

Friday, March 29, 2013

  Actual Average Record
Temperature  
Mean Temperature 38 °F -  
Max Temperature 44 °F - - ()
Min Temperature 32 °F - - ()
Degree Days  
Heating Degree Days 27    
Moisture  
Dew Point 27 °F    
Average Humidity 75    
Maximum Humidity 100    
Minimum Humidity 39    
Precipitation  
Precipitation 0.00 in - - ()
Sea Level Pressure  
Sea Level Pressure 29.69 in    
Wind  
Wind Speed 6 mph ()    
Max Wind Speed 17 mph    
Max Gust Speed -    
Visibility 3.8 miles    
Events Snow    
T = Trace of Precipitation, MM = Missing Value Source: Averaged Metar Reports

Daily Weather History Graph

Daily Weather History Graph

Search for Another Location

Airport or City:

Trip Planner

Search our weather history database for the weather conditions in past years. The results will help you decide how hot, cold, wet, or windy it might be!

Date:

Astronomy

Mar. 29, 2013 Rise Set
Actual Time 5:40 AM CET 6:24 PM CET
Civil Twilight 5:07 AM CET 6:56 PM CET
Nautical Twilight 4:28 AM CET 7:36 PM CET
Astronomical Twilight 3:47 AM CET 8:17 PM CET
Moon 9:23 PM CET (3/29) 6:21 AM CET (3/29)
Length of Visible Light 13h 49m
Length of Day
12h 44m
Waning Gibbous, 95% of the Moon is Illuminated
Mar 29
Waning Gibbous
Apr 3
Last Quarter
Apr 10
New
Apr 18
First Quarter
Apr 25
Full

Hourly Weather History & Observations

Time (CET) Temp. Windchill Dew Point Humidity Pressure Visibility Wind Dir Wind Speed Gust Speed Precip Events Conditions
12:00 AM 33.8 °F 25.3 °F 24.8 °F 70% 29.80 in 6.2 mi ESE 11.5 mph - N/A   Overcast
1:00 AM 33.8 °F 25.8 °F 26.6 °F 75% 29.77 in 6.2 mi ESE 10.4 mph - N/A   Overcast
2:00 AM 33.8 °F 25.8 °F 26.6 °F 75% 29.74 in 6.2 mi East 10.4 mph - N/A   Overcast
3:00 AM 33.8 °F 28.6 °F 26.6 °F 75% 29.71 in 6.2 mi ESE 5.8 mph - N/A   Overcast
4:00 AM 33.8 °F 29.6 °F 26.6 °F 75% 29.71 in 6.2 mi ESE 4.6 mph - N/A   Overcast
5:00 AM 33.8 °F 28.6 °F 28.4 °F 81% 29.68 in 1.9 mi ESE 5.8 mph - N/A Snow Light Snow
5:26 AM 32.0 °F - 30.2 °F 93% 29.68 in 1.2 mi Variable 2.3 mph - N/A Snow Light Snow
6:00 AM 32.0 °F 25.6 °F 30.2 °F 93% 29.65 in 0.9 mi East 6.9 mph - N/A Snow Light Snow
6:09 AM 32.0 °F 26.4 °F 30.2 °F 93% 29.68 in 0.6 mi East 5.8 mph - N/A Snow Light Snow
6:35 AM 32.0 °F 28.7 °F 32.0 °F 100% 29.68 in 1.2 mi East 3.5 mph - N/A   Overcast
7:00 AM 33.8 °F - 32.0 °F 93% 29.68 in 1.9 mi Variable 2.3 mph - N/A   Overcast
8:00 AM 33.8 °F - 32.0 °F 93% 29.68 in 1.6 mi Variable 2.3 mph - N/A   Overcast
8:10 AM 32.0 °F - 32.0 °F 100% 29.68 in 0.9 mi West 2.3 mph - N/A Snow Snow
8:21 AM 32.0 °F - 30.2 °F 93% 29.68 in 0.6 mi Calm Calm - N/A Snow Snow
9:00 AM 32.0 °F - 32.0 °F 100% 29.68 in 0.9 mi SE 2.3 mph - N/A Snow Light Snow
9:17 AM 33.8 °F - 32.0 °F 93% 29.68 in 1.6 mi Variable 2.3 mph - N/A Snow Light Snow
9:27 AM 33.8 °F - 32.0 °F 93% 29.68 in 2.2 mi Variable 1.2 mph - N/A   Overcast
9:45 AM 33.8 °F - 33.8 °F 100% 29.71 in 4.3 mi Variable 2.3 mph - N/A   Overcast
10:00 AM 37.4 °F 30.3 °F 35.6 °F 93% 29.71 in 6.2 mi WSW 10.4 mph - N/A   Mostly Cloudy
11:19 AM 41.0 °F 34.3 °F 32.0 °F 70% 29.68 in 5.0 mi West 11.5 mph - N/A   Mostly Cloudy
12:00 PM 42.8 °F 35.4 °F 28.4 °F 57% 29.68 in 6.2 mi West 15.0 mph - N/A   Mostly Cloudy
1:00 PM 42.8 °F 34.8 °F 24.8 °F 49% 29.68 in 6.2 mi West 17.3 mph - N/A   Mostly Cloudy
2:00 PM 42.8 °F 34.8 °F 23.0 °F 46% 29.68 in 6.2 mi West 17.3 mph - N/A   Mostly Cloudy
3:00 PM 44.6 °F 37.4 °F 21.2 °F 39% 29.65 in 6.2 mi West 16.1 mph - N/A   Mostly Cloudy
4:00 PM 42.8 °F 36.2 °F 21.2 °F 42% 29.65 in - West 12.7 mph - N/A   Clear
5:00 PM 41.0 °F 34.7 °F 21.2 °F 45% 29.65 in - West 10.4 mph - N/A   Clear
6:00 PM 39.2 °F 34.2 °F 23.0 °F 52% 29.68 in - NW 6.9 mph - N/A   Clear
7:00 PM 37.4 °F 32.1 °F 21.2 °F 52% 29.68 in 5.0 mi NW 6.9 mph - N/A   Unknown
8:00 PM 35.6 °F 30.7 °F 21.2 °F 56% 29.71 in 5.0 mi West 5.8 mph - N/A   Unknown
9:00 PM 33.8 °F 30.8 °F 23.0 °F 65% 29.71 in 5.0 mi West 3.5 mph - N/A   Unknown
10:00 PM 33.8 °F 30.8 °F 21.2 °F 60% 29.71 in 4.3 mi NW 3.5 mph - N/A   Unknown
11:00 PM 33.8 °F - 23.0 °F 65% 29.71 in 4.3 mi Calm Calm - N/A   Unknown